Time,TemperatureF,DewpointF,PressureIn,WindDirection,WindDirectionDegrees,WindSpeedMPH,WindSpeedGustMPH,Humidity,HourlyPrecipIn,Conditions,Clouds,dailyrainin,SolarRadiationWatts/m^2,SoftwareType,DateUTC
2013-01-30 00:22:00,66.0,63.0,-100.00,ESE,123,2.0,8.0,89,0.00,,,0.00,0.000000,,2013-01-30 05:22:00,
2013-01-30 00:32:00,66.0,63.0,-100.00,ESE,123,2.0,8.0,89,0.00,,,0.00,0.000000,,2013-01-30 05:32:00,
2013-01-30 00:43:00,66.0,63.0,-100.00,ESE,123,2.0,8.0,89,0.00,,,0.00,0.000000,,2013-01-30 05:43:00,
2013-01-30 00:52:00,66.0,63.0,-100.00,ESE,123,2.0,8.0,89,0.00,,,0.00,0.000000,,2013-01-30 05:52:00,
2013-01-30 01:02:00,66.0,63.0,-100.00,ESE,123,2.0,8.0,89,0.00,,,0.00,0.000000,,2013-01-30 06:02:00,
2013-01-30 01:22:00,65.0,62.0,-100.00,ESE,111,3.0,7.0,90,0.00,,,0.00,0.000000,,2013-01-30 06:22:00,
2013-01-30 01:32:00,65.0,62.0,-100.00,ESE,111,3.0,7.0,90,0.00,,,0.00,0.000000,,2013-01-30 06:32:00,
2013-01-30 01:42:00,65.0,62.0,-100.00,ESE,111,3.0,7.0,90,0.00,,,0.00,0.000000,,2013-01-30 06:42:00,
2013-01-30 01:52:00,65.0,62.0,-100.00,ESE,111,3.0,7.0,90,0.00,,,0.00,0.000000,,2013-01-30 06:52:00,
2013-01-30 02:02:00,65.0,62.0,-100.00,ESE,111,3.0,7.0,90,0.00,,,0.00,0.000000,,2013-01-30 07:02:00,
2013-01-30 02:32:00,64.0,62.0,-100.00,SSE,157,2.0,6.0,92,0.00,,,0.00,0.000000,,2013-01-30 07:32:00,
2013-01-30 02:42:00,64.0,62.0,-100.00,SSE,157,2.0,6.0,92,0.00,,,0.00,0.000000,,2013-01-30 07:42:00,
2013-01-30 02:52:00,64.0,62.0,-100.00,SSE,157,2.0,6.0,92,0.00,,,0.00,0.000000,,2013-01-30 07:52:00,
2013-01-30 03:02:00,64.0,62.0,-100.00,SSE,157,2.0,6.0,92,0.00,,,0.00,0.000000,,2013-01-30 08:02:00,
2013-01-30 03:32:00,63.0,61.0,-100.00,East,95,2.0,4.0,94,0.00,,,0.00,0.000000,,2013-01-30 08:32:00,
2013-01-30 03:42:00,63.0,61.0,-100.00,East,95,2.0,4.0,94,0.00,,,0.00,0.000000,,2013-01-30 08:42:00,
2013-01-30 03:52:00,63.0,61.0,-100.00,East,95,2.0,4.0,94,0.00,,,0.00,0.000000,,2013-01-30 08:52:00,
2013-01-30 04:02:00,63.0,61.0,-100.00,East,95,2.0,4.0,94,0.00,,,0.00,0.000000,,2013-01-30 09:02:00,
2013-01-30 04:32:00,64.0,62.0,-100.00,ESE,102,2.0,5.0,92,0.00,,,0.00,0.000000,,2013-01-30 09:32:00,
2013-01-30 04:42:00,64.0,62.0,-100.00,ESE,102,2.0,5.0,92,0.00,,,0.00,0.000000,,2013-01-30 09:42:00,
2013-01-30 04:52:00,64.0,62.0,-100.00,ESE,102,2.0,5.0,92,0.00,,,0.00,0.000000,,2013-01-30 09:52:00,
2013-01-30 05:02:00,64.0,62.0,-100.00,ESE,102,2.0,5.0,92,0.00,,,0.00,0.000000,,2013-01-30 10:02:00,
2013-01-30 05:22:00,65.0,63.0,-100.00,SE,132,3.0,6.0,92,0.00,,,0.00,0.000000,,2013-01-30 10:22:00,
2013-01-30 05:32:00,65.0,63.0,-100.00,SE,132,3.0,6.0,92,0.00,,,0.00,0.000000,,2013-01-30 10:32:00,
2013-01-30 05:42:00,65.0,63.0,-100.00,SE,132,3.0,6.0,92,0.00,,,0.00,0.000000,,2013-01-30 10:42:00,
2013-01-30 05:52:00,65.0,63.0,-100.00,SE,132,3.0,6.0,92,0.00,,,0.00,0.000000,,2013-01-30 10:52:00,
2013-01-30 06:02:00,65.0,63.0,-100.00,SE,132,3.0,6.0,92,0.00,,,0.00,0.000000,,2013-01-30 11:02:00,
2013-01-30 06:33:00,65.0,63.0,-100.00,SE,133,3.0,6.0,92,0.00,,,0.00,0.000000,,2013-01-30 11:33:00,
2013-01-30 06:42:00,65.0,63.0,-100.00,SE,133,3.0,6.0,92,0.00,,,0.00,0.000000,,2013-01-30 11:42:00,
2013-01-30 06:52:00,65.0,63.0,-100.00,SE,133,3.0,6.0,92,0.00,,,0.00,0.000000,,2013-01-30 11:52:00,
2013-01-30 07:02:00,65.0,63.0,-100.00,SE,133,3.0,6.0,92,0.00,,,0.00,0.000000,,2013-01-30 12:02:00,
2013-01-30 07:33:00,65.0,62.0,-100.00,ESE,114,2.0,6.0,91,0.00,,,0.00,0.000000,,2013-01-30 12:33:00,
2013-01-30 07:43:00,65.0,62.0,-100.00,ESE,114,2.0,6.0,91,0.00,,,0.00,0.000000,,2013-01-30 12:43:00,
2013-01-30 08:03:00,65.0,62.0,-100.00,ESE,114,2.0,6.0,91,0.00,,,0.00,0.000000,,2013-01-30 13:03:00,
2013-01-30 08:23:00,66.0,64.0,-100.00,ESE,111,2.0,6.0,92,0.00,,,0.00,13.000000,,2013-01-30 13:23:00,
2013-01-30 08:33:00,66.0,64.0,-100.00,ESE,111,2.0,6.0,92,0.00,,,0.00,13.000000,,2013-01-30 13:33:00,
2013-01-30 08:43:00,66.0,64.0,-100.00,ESE,111,2.0,6.0,92,0.00,,,0.00,13.000000,,2013-01-30 13:43:00,
2013-01-30 08:53:00,66.0,64.0,-100.00,ESE,111,2.0,6.0,92,0.00,,,0.00,13.000000,,2013-01-30 13:53:00,
2013-01-30 09:03:00,66.0,64.0,-100.00,ESE,111,2.0,6.0,92,0.00,,,0.00,13.000000,,2013-01-30 14:03:00,
2013-01-30 09:33:00,71.0,66.0,-100.00,South,172,5.0,12.0,83,0.00,,,0.00,124.000000,,2013-01-30 14:33:00,
2013-01-30 09:43:00,71.0,66.0,-100.00,South,172,5.0,12.0,83,0.00,,,0.00,124.000000,,2013-01-30 14:43:00,
2013-01-30 09:53:00,71.0,66.0,-100.00,South,172,5.0,12.0,83,0.00,,,0.00,124.000000,,2013-01-30 14:53:00,
2013-01-30 10:03:00,71.0,66.0,-100.00,South,172,5.0,12.0,83,0.00,,,0.00,124.000000,,2013-01-30 15:03:00,
2013-01-30 10:33:00,76.0,66.0,-100.00,SSW,202,4.0,14.0,71,0.00,,,0.00,348.000000,,2013-01-30 15:33:00,
2013-01-30 10:43:00,76.0,66.0,-100.00,SSW,202,4.0,14.0,71,0.00,,,0.00,348.000000,,2013-01-30 15:43:00,
2013-01-30 10:53:00,76.0,66.0,-100.00,SSW,202,4.0,14.0,71,0.00,,,0.00,348.000000,,2013-01-30 15:53:00,
2013-01-30 11:03:00,76.0,66.0,-100.00,SSW,202,4.0,14.0,71,0.00,,,0.00,348.000000,,2013-01-30 16:03:00,
2013-01-30 11:33:00,78.0,63.0,-100.00,SSE,156,5.0,13.0,61,0.00,,,0.00,512.000000,,2013-01-30 16:33:00,
2013-01-30 11:42:00,78.0,63.0,-100.00,SSE,156,5.0,13.0,61,0.00,,,0.00,512.000000,,2013-01-30 16:42:00,
2013-01-30 11:52:00,78.0,63.0,-100.00,SSE,156,5.0,13.0,61,0.00,,,0.00,512.000000,,2013-01-30 16:52:00,
2013-01-30 12:02:00,78.0,63.0,-100.00,SSE,156,5.0,13.0,61,0.00,,,0.00,512.000000,,2013-01-30 17:02:00,
2013-01-30 12:33:00,81.0,62.0,-100.00,SSE,150,5.0,16.0,52,0.00,,,0.00,650.000000,,2013-01-30 17:33:00,
2013-01-30 12:43:00,81.0,62.0,-100.00,SSE,150,5.0,16.0,52,0.00,,,0.00,650.000000,,2013-01-30 17:43:00,
2013-01-30 12:53:00,81.0,62.0,-100.00,SSE,150,5.0,16.0,52,0.00,,,0.00,650.000000,,2013-01-30 17:53:00,
2013-01-30 13:03:00,81.0,62.0,-100.00,SSE,150,5.0,16.0,52,0.00,,,0.00,650.000000,,2013-01-30 18:03:00,
2013-01-30 13:33:00,81.0,59.0,-100.00,SE,127,6.0,15.0,48,0.00,,,0.00,735.000000,,2013-01-30 18:33:00,
2013-01-30 13:43:00,81.0,59.0,-100.00,SE,127,6.0,15.0,48,0.00,,,0.00,735.000000,,2013-01-30 18:43:00,
2013-01-30 13:53:00,81.0,59.0,-100.00,SE,127,6.0,15.0,48,0.00,,,0.00,735.000000,,2013-01-30 18:53:00,
2013-01-30 14:03:00,81.0,59.0,-100.00,SE,127,6.0,15.0,48,0.00,,,0.00,735.000000,,2013-01-30 19:03:00,
2013-01-30 14:33:00,80.0,64.0,-100.00,SE,125,5.0,11.0,58,0.00,,,0.00,646.000000,,2013-01-30 19:33:00,
2013-01-30 14:43:00,80.0,64.0,-100.00,SE,125,5.0,11.0,58,0.00,,,0.00,646.000000,,2013-01-30 19:43:00,
2013-01-30 14:53:00,80.0,64.0,-100.00,SE,125,5.0,11.0,58,0.00,,,0.00,646.000000,,2013-01-30 19:53:00,
2013-01-30 15:03:00,80.0,64.0,-100.00,SE,125,5.0,11.0,58,0.00,,,0.00,646.000000,,2013-01-30 20:03:00,
2013-01-30 15:22:00,80.0,64.0,-100.00,SSE,160,4.0,12.0,58,0.00,,,0.00,399.000000,,2013-01-30 20:22:00,
2013-01-30 15:33:00,80.0,64.0,-100.00,SSE,160,4.0,12.0,58,0.00,,,0.00,399.000000,,2013-01-30 20:33:00,
2013-01-30 15:42:00,80.0,64.0,-100.00,SSE,160,4.0,12.0,58,0.00,,,0.00,399.000000,,2013-01-30 20:42:00,
2013-01-30 15:53:00,80.0,64.0,-100.00,SSE,160,4.0,12.0,58,0.00,,,0.00,399.000000,,2013-01-30 20:53:00,
2013-01-30 16:03:00,80.0,64.0,-100.00,SSE,160,4.0,12.0,58,0.00,,,0.00,399.000000,,2013-01-30 21:03:00,
2013-01-30 16:23:00,78.0,65.0,-100.00,SE,129,5.0,11.0,64,0.00,,,0.00,259.000000,,2013-01-30 21:23:00,
2013-01-30 16:32:00,78.0,65.0,-100.00,SE,129,5.0,11.0,64,0.00,,,0.00,259.000000,,2013-01-30 21:32:00,
2013-01-30 16:43:00,78.0,65.0,-100.00,SE,129,5.0,11.0,64,0.00,,,0.00,259.000000,,2013-01-30 21:43:00,
2013-01-30 16:53:00,78.0,65.0,-100.00,SE,129,5.0,11.0,64,0.00,,,0.00,259.000000,,2013-01-30 21:53:00,
2013-01-30 17:03:00,78.0,65.0,-100.00,SE,129,5.0,11.0,64,0.00,,,0.00,259.000000,,2013-01-30 22:03:00,
2013-01-30 17:22:00,80.0,65.0,-100.00,SSW,199,4.0,11.0,61,0.00,,,0.00,106.000000,,2013-01-30 22:22:00,
2013-01-30 17:33:00,80.0,65.0,-100.00,SSW,199,4.0,11.0,61,0.00,,,0.00,106.000000,,2013-01-30 22:33:00,
2013-01-30 17:43:00,80.0,65.0,-100.00,SSW,199,4.0,11.0,61,0.00,,,0.00,106.000000,,2013-01-30 22:43:00,
2013-01-30 17:53:00,80.0,65.0,-100.00,SSW,199,4.0,11.0,61,0.00,,,0.00,106.000000,,2013-01-30 22:53:00,
2013-01-30 18:02:00,80.0,65.0,-100.00,SSW,199,4.0,11.0,61,0.00,,,0.00,106.000000,,2013-01-30 23:02:00,
2013-01-30 18:23:00,73.0,60.0,-100.00,SE,141,4.0,11.0,64,0.00,,,0.00,27.000000,,2013-01-30 23:23:00,
2013-01-30 18:33:00,73.0,60.0,-100.00,SE,141,4.0,11.0,64,0.00,,,0.00,27.000000,,2013-01-30 23:33:00,
2013-01-30 18:42:00,73.0,60.0,-100.00,SE,141,4.0,11.0,64,0.00,,,0.00,27.000000,,2013-01-30 23:42:00,
2013-01-30 18:52:00,73.0,60.0,-100.00,SE,141,4.0,11.0,64,0.00,,,0.00,27.000000,,2013-01-30 23:52:00,
2013-01-30 19:02:00,73.0,60.0,-100.00,SE,141,4.0,11.0,64,0.00,,,0.00,27.000000,,2013-01-31 00:02:00,
2013-01-30 19:32:00,73.0,57.0,-100.00,ESE,104,4.0,11.0,58,0.00,,,0.00,0.000000,,2013-01-31 00:32:00,
2013-01-30 19:43:00,73.0,57.0,-100.00,ESE,104,4.0,11.0,58,0.00,,,0.00,0.000000,,2013-01-31 00:43:00,
2013-01-30 19:53:00,73.0,57.0,-100.00,ESE,104,4.0,11.0,58,0.00,,,0.00,0.000000,,2013-01-31 00:53:00,
2013-01-30 20:02:00,73.0,57.0,-100.00,ESE,104,4.0,11.0,58,0.00,,,0.00,0.000000,,2013-01-31 01:02:00,
2013-01-30 20:32:00,76.0,60.0,-100.00,SW,228,3.0,11.0,58,0.00,,,0.00,0.000000,,2013-01-31 01:32:00,
2013-01-30 20:42:00,76.0,60.0,-100.00,SW,228,3.0,11.0,58,0.00,,,0.00,0.000000,,2013-01-31 01:42:00,
2013-01-30 20:53:00,76.0,60.0,-100.00,SW,228,3.0,11.0,58,0.00,,,0.00,0.000000,,2013-01-31 01:53:00,
2013-01-30 21:01:00,76.0,60.0,-100.00,SW,228,3.0,11.0,58,0.00,,,0.00,0.000000,,2013-01-31 02:01:00,
2013-01-30 21:22:00,75.0,61.0,-100.00,WSW,254,4.0,16.0,61,0.00,,,0.00,0.000000,,2013-01-31 02:22:00,
2013-01-30 21:32:00,75.0,61.0,-100.00,WSW,254,4.0,16.0,61,0.00,,,0.00,0.000000,,2013-01-31 02:32:00,
2013-01-30 21:42:00,75.0,61.0,-100.00,WSW,254,4.0,16.0,61,0.00,,,0.00,0.000000,,2013-01-31 02:42:00,
2013-01-30 21:52:00,75.0,61.0,-100.00,WSW,254,4.0,16.0,61,0.00,,,0.00,0.000000,,2013-01-31 02:52:00,
2013-01-30 22:03:00,75.0,61.0,-100.00,WSW,254,4.0,16.0,61,0.00,,,0.00,0.000000,,2013-01-31 03:03:00,
2013-01-30 22:32:00,75.0,62.0,-100.00,SW,215,7.0,18.0,64,0.00,,,0.00,0.000000,,2013-01-31 03:32:00,
2013-01-30 22:42:00,75.0,62.0,-100.00,SW,215,7.0,18.0,64,0.00,,,0.00,0.000000,,2013-01-31 03:42:00,
2013-01-30 22:52:00,75.0,62.0,-100.00,SW,215,7.0,18.0,64,0.00,,,0.00,0.000000,,2013-01-31 03:52:00,
2013-01-30 23:02:00,75.0,62.0,-100.00,SW,215,7.0,18.0,64,0.00,,,0.00,0.000000,,2013-01-31 04:02:00,
2013-01-30 23:32:00,56.0,54.0,-100.00,WNW,296,11.0,24.0,92,0.20,,,0.20,0.000000,,2013-01-31 04:32:00,
2013-01-30 23:42:00,56.0,54.0,-100.00,WNW,296,11.0,24.0,92,0.20,,,0.20,0.000000,,2013-01-31 04:42:00,
2013-01-30 23:52:00,56.0,54.0,-100.00,WNW,296,11.0,24.0,92,0.20,,,0.20,0.000000,,2013-01-31 04:52:00,